Terminal Aerodrome Forecast
Issued by NWS

Home | Current Version | Previous Version | Text Only | Print | Product List | Glossary On
Versions: 1 2 3 4 5 6 7 8 9 10 11 12 13
000
FTUS45 KRIW 220900 AAA
TAFCPR
TAF AMD
KCPR 220905Z 2209/2306 04007KT P6SM SCT022 SCT100
      TEMPO 2209/2211 BKN022
     FM221100 05006KT P6SM BKN022
     FM221600 06006KT P6SM SCT025 SCT100
     FM221900 10011KT P6SM SCT050 SCT100
     FM222200 10011KT P6SM VCTS SCT050CB BKN090
     FM230200 18008KT P6SM VCSH BKN060=

USA.gov is the U.S. government's official web portal to all federal, state and local government web resources and services.